Home   Weather   Helena   Past weeks

Flag for USA Past Weather in Helena, Montana, USA — Yesterday and Last 2 Weeks

Now
11 °F

Sunny.


Feels Like: 3 °F
Forecast: 2 / 19 °F
Wind: 5 mph from Northwest

Location: Helena Regional Airport

Current Time: Jan 16, 2017 at 3:22:14 pm

Latest Report: Jan 16, 2017 at 2:53 pm


Visibility: 10 mi

Pressure: 30.47 "Hg (25.92 "Hg at 1239m altitude)

Humidity: 61%

Dew Point: 0 °F

Location of HelenaLocation

Past Weather in Helena — Graph

°F

Helena Temperature Yesterday

Maximum temperature yesterday: 6 °F (at 1:53 pm)
Minimum temperature yesterday: -9 °F (at 6:53 am)
Average temperature yesterday: -2 °F

High & Low Weather Summary for the Past Weeks

 TemperatureHumidityPressure
High29 °F (Jan 9, 4:53 pm)96% (Jan 15, 9:53 am)30.83 "Hg (Jan 15, 9:53 am)
Low-13 °F (Jan 5, 7:53 am)51% (Jan 9, 8:53 pm)29.44 "Hg (Jan 9, 1:29 pm)
Average2 °F74%30.30 "Hg
* Reported Jan 1 1:00 pm — Jan 16 1:53 pm, Helena, Weather by CustomWeather, © 2017

Note: Actual official high and low records may vary slightly from our data, if they occured in-between our weather recording intervals... More about our weather records

Advertising

Helena Weather History for the Previous 24 Hours

Scroll right to see more
 ConditionsComfort  
Time TempWeatherWind HumidityBarometerVisibility
1:53 pm
Mon, Jan 16
6 °FSunny.No wind69%30.50 "Hg10 mi
12:53 pm6 °FSunny.No wind66%30.54 "Hg10 mi
11:53 am2 °FSunny.3 mph72%30.57 "Hg10 mi
10:53 am-4 °FSunny.No wind83%30.61 "Hg10 mi
9:53 am-1 °FIce fog.No wind86%30.59 "Hg3 mi
9:16 am-6 °FIce fog.3 mphN/A30.27 "Hg2 mi
8:53 am-4 °FSunny.No wind83%30.59 "Hg10 mi
7:53 am-6 °FClear.No wind78%30.58 "Hg5 mi
6:53 am-7 °FClear.No wind79%30.60 "Hg10 mi
5:53 am-8 °FIce fog.No wind83%30.60 "Hg3 mi
4:53 am-4 °FClear.No wind79%30.58 "Hg5 mi
3:53 am-5 °FClear.No windN/A30.58 "Hg4 mi
2:53 am-3 °FIce fog.No wind82%30.57 "Hg5 mi
1:53 am-3 °FIce fog.No wind82%30.56 "Hg5 mi
12:53 am-2 °FClear.No wind78%30.55 "Hg5 mi
11:53 pm
Sun, Jan 15
-3 °FClear.No wind78%30.57 "Hg4 mi
10:53 pm-2 °FIce fog.No wind83%30.55 "Hg4 mi
9:53 pm1 °FClear.No wind75%30.54 "Hg5 mi
8:53 pm2 °FClear.No wind76%30.53 "Hg5 mi
7:53 pm2 °FClear.3 mph76%30.52 "Hg5 mi
6:53 pm1 °FClear.3 mph75%30.51 "Hg5 mi
5:53 pm3 °FClear.No wind72%30.48 "Hg6 mi
4:53 pm2 °FSunny.6 mph72%30.46 "Hg6 mi
3:53 pm4 °FSunny.3 mph73%30.45 "Hg6 mi
Weather by CustomWeather, © 2017

See weather overviewHow to use our weather pages